{"data":{"norad_id":62758,"intl_designator":"2025-015A","name":"STARLINK-33596","alt_names":[],"object_type":"PAYLOAD","status":"ACTIVE","operator":null,"country":"US","launch_date":"2025-01-21","launch_site_code":"AFWTR","launch_vehicle":null,"mission":null,"orbit_class":"UNKNOWN","rcs_meters":null,"size_class":null,"mass_kg":null,"dimensions":null,"purposes":["comms"],"wikipedia_slug":null,"has_3d_model":false,"image_url":null,"decayed_at":null,"tle_current":{"epoch":"2026-09-21T20:31:42.512160Z","epoch_age_seconds":54251,"freshness":"FRESH","line1":"1 62758U 25015A   26264.85535315  .00012213  00000+0  40456-3 0  9996","line2":"2 62758  53.1590 129.9648 0001454  86.9935 273.1233 15.31710083 94469","mean_motion":15.31710083,"eccentricity":0.0001454,"inclination_deg":53.159,"raan_deg":129.9648,"arg_perigee_deg":86.9935,"mean_anomaly_deg":273.1233,"bstar":0.00040456,"rev_number":9446,"period_min":94.012569087462,"perigee_km":469.71411614735,"apogee_km":471.70576083707,"semimajor_km":6848.8469384922,"source":"CELESTRAK","updated_at":"2026-09-22T09:00:49.660230Z"}}}